APSTAR-6C

Last updated on Wed Jul 16 2025 00:02:49 GMT+0000 (Coordinated Universal Time)

1 43450U 18041A 25196.59633231 -.00000310 00000+0 00000+0 0 9998 2 43450 0.0387 306.6080 0000895 309.7583 26.0294 1.00271896 26438
UTC large
Height (km)
Speed (km/s)
/
Latitude / Longitude
Inclination (degrees)
Orbital Period (minutes)
Azimuth
Elevation
Range (km)
Doppler Factor

Next 0 passes for location: London (51.5072 / 0.1276)

Sorry there are no passes over London.